Torna al catalogo

STARLINK-5931

AttivoComunicazioniVLEO
NORAD 56785·PAYLOAD·🇺🇸 United States

Lanciato May 31, 2023 da Vandenberg Space Force Base

Loading…

Prossimi Passaggi (prossime 24 ore)

TLE

AggiornatoSource: CelesTrak SupGP

Epoca: Sep 14, 2026, 14:55 UTC

1 56785C 23078U   26257.62201389 -.00033486  00000+0 -28073-2 0  2578
2 56785  70.0001 228.2114 0003545 266.5641 226.8511 14.98332222    10

Traccia STARLINK-5931 in tempo reale con AllMySat

Download on the App Store